Time,TemperatureF,DewpointF,PressureIn,WindDirection,WindDirectionDegrees,WindSpeedMPH,WindSpeedGustMPH,Humidity,HourlyPrecipIn,Conditions,Clouds,dailyrainin,SolarRadiationWatts/m^2,SoftwareType,DateUTC
2013-01-18 00:00:00,29.7,11.5,30.07,NNW,346,6.0,18.0,46,0.00,,,0.01,0,HR-IXPWINDi_r2_v1.2.,2013-01-18 05:00:00,
2013-01-18 00:05:00,29.7,11.5,30.07,NNW,347,8.0,13.0,46,0.00,,,0.01,0,HR-IXPWINDi_r2_v1.2.,2013-01-18 05:05:00,
2013-01-18 00:10:00,29.7,11.5,30.08,WNW,302,6.0,10.0,46,0.00,,,0.01,0,HR-IXPWINDi_r2_v1.2.,2013-01-18 05:10:00,
2013-01-18 00:16:00,29.6,11.9,30.08,NNW,340,4.0,10.0,47,0.00,,,0.01,0,HR-IXPWINDi_r2_v1.2.,2013-01-18 05:16:00,
2013-01-18 00:21:00,29.6,11.4,30.08,North,355,5.0,8.0,46,0.00,,,0.01,0,HR-IXPWINDi_r2_v1.2.,2013-01-18 05:21:00,
2013-01-18 00:26:00,29.6,11.9,30.08,WNW,295,5.0,9.0,47,0.00,,,0.01,0,HR-IXPWINDi_r2_v1.2.,2013-01-18 05:26:00,
2013-01-18 00:31:00,29.5,11.3,30.08,NNW,344,4.0,10.0,46,0.00,,,0.01,0,HR-IXPWINDi_r2_v1.2.,2013-01-18 05:31:00,
2013-01-18 00:36:00,29.4,9.2,30.08,North,349,4.0,15.0,42,0.00,,,0.01,0,HR-IXPWINDi_r2_v1.2.,2013-01-18 05:36:00,
2013-01-18 00:41:00,29.4,9.2,30.07,North,355,7.0,15.0,42,0.00,,,0.01,0,HR-IXPWINDi_r2_v1.2.,2013-01-18 05:41:00,
2013-01-18 00:46:00,29.3,9.1,30.08,North,5,3.0,15.0,42,0.00,,,0.01,0,HR-IXPWINDi_r2_v1.2.,2013-01-18 05:46:00,
2013-01-18 00:52:00,29.3,9.1,30.08,NNE,19,4.0,15.0,42,0.00,,,0.01,0,HR-IXPWINDi_r2_v1.2.,2013-01-18 05:52:00,
2013-01-18 00:57:00,29.2,8.5,30.08,NNW,344,6.0,16.0,41,0.00,,,0.01,0,HR-IXPWINDi_r2_v1.2.,2013-01-18 05:57:00,
2013-01-18 01:02:00,29.1,7.8,30.08,NNW,333,10.0,16.0,40,0.00,,,0.01,0,HR-IXPWINDi_r2_v1.2.,2013-01-18 06:02:00,
2013-01-18 01:07:00,29.0,8.3,30.08,NNW,344,4.0,16.0,41,0.00,,,0.01,0,HR-IXPWINDi_r2_v1.2.,2013-01-18 06:07:00,
2013-01-18 01:12:00,29.0,8.3,30.09,NNE,13,6.0,15.0,41,0.00,,,0.01,0,HR-IXPWINDi_r2_v1.2.,2013-01-18 06:12:00,
2013-01-18 01:17:00,29.0,7.7,30.07,NNW,340,6.0,14.0,40,0.00,,,0.01,0,HR-IXPWINDi_r2_v1.2.,2013-01-18 06:17:00,
2013-01-18 01:22:00,28.9,8.2,30.06,North,355,12.0,14.0,41,0.00,,,0.01,0,HR-IXPWINDi_r2_v1.2.,2013-01-18 06:22:00,
2013-01-18 01:28:00,28.8,7.6,30.06,NNW,347,4.0,13.0,40,0.00,,,0.01,0,HR-IXPWINDi_r2_v1.2.,2013-01-18 06:28:00,
2013-01-18 01:33:00,28.7,7.5,30.07,NNW,338,6.0,13.0,40,0.00,,,0.01,0,HR-IXPWINDi_r2_v1.2.,2013-01-18 06:33:00,
2013-01-18 01:38:00,28.7,8.6,30.06,North,5,4.0,12.0,42,0.00,,,0.01,0,HR-IXPWINDi_r2_v1.2.,2013-01-18 06:38:00,
2013-01-18 01:43:00,28.7,8.6,30.06,North,355,7.0,12.0,42,0.00,,,0.01,0,HR-IXPWINDi_r2_v1.2.,2013-01-18 06:43:00,
2013-01-18 01:48:00,28.6,8.5,30.06,North,5,7.0,10.0,42,0.00,,,0.01,0,HR-IXPWINDi_r2_v1.2.,2013-01-18 06:48:00,
2013-01-18 01:53:00,28.6,8.5,30.07,North,355,6.0,11.0,42,0.00,,,0.01,0,HR-IXPWINDi_r2_v1.2.,2013-01-18 06:53:00,
2013-01-18 01:58:00,28.6,8.5,30.07,NNW,344,9.0,13.0,42,0.00,,,0.01,0,HR-IXPWINDi_r2_v1.2.,2013-01-18 06:58:00,
2013-01-18 02:04:00,28.5,8.4,30.08,North,350,3.0,13.0,42,0.00,,,0.01,0,HR-IXPWINDi_r2_v1.2.,2013-01-18 07:04:00,
2013-01-18 02:09:00,28.5,8.4,30.08,NNW,327,5.0,13.0,42,0.00,,,0.01,0,HR-IXPWINDi_r2_v1.2.,2013-01-18 07:09:00,
2013-01-18 02:14:00,28.5,7.8,30.08,NNE,18,9.0,12.0,41,0.00,,,0.01,0,HR-IXPWINDi_r2_v1.2.,2013-01-18 07:14:00,
2013-01-18 02:19:00,28.4,7.2,30.09,NNW,342,7.0,12.0,40,0.00,,,0.01,0,HR-IXPWINDi_r2_v1.2.,2013-01-18 07:19:00,
2013-01-18 02:25:00,28.4,7.7,30.08,North,355,7.0,13.0,41,0.00,,,0.01,0,HR-IXPWINDi_r2_v1.2.,2013-01-18 07:25:00,
2013-01-18 02:30:00,28.2,7.6,30.08,NNW,342,9.0,15.0,41,0.00,,,0.01,0,HR-IXPWINDi_r2_v1.2.,2013-01-18 07:30:00,
2013-01-18 02:35:00,28.2,7.6,30.09,NW,313,10.0,15.0,41,0.00,,,0.01,0,HR-IXPWINDi_r2_v1.2.,2013-01-18 07:35:00,
2013-01-18 02:40:00,28.1,6.9,30.09,NNE,14,6.0,14.0,40,0.00,,,0.01,0,HR-IXPWINDi_r2_v1.2.,2013-01-18 07:40:00,
2013-01-18 02:46:00,28.1,7.5,30.09,North,11,5.0,14.0,41,0.00,,,0.01,0,HR-IXPWINDi_r2_v1.2.,2013-01-18 07:46:00,
2013-01-18 02:51:00,28.1,7.5,30.10,NNW,331,11.0,13.0,41,0.00,,,0.01,0,HR-IXPWINDi_r2_v1.2.,2013-01-18 07:51:00,
2013-01-18 02:56:00,28.0,6.8,30.10,NNE,15,10.0,16.0,40,0.00,,,0.01,0,HR-IXPWINDi_r2_v1.2.,2013-01-18 07:56:00,
2013-01-18 03:01:00,27.9,5.1,30.10,NW,315,5.0,20.0,37,0.00,,,0.01,0,HR-IXPWINDi_r2_v1.2.,2013-01-18 08:01:00,
2013-01-18 03:07:00,27.6,4.2,30.09,NNW,336,7.0,20.0,36,0.00,,,0.01,0,HR-IXPWINDi_r2_v1.2.,2013-01-18 08:07:00,
2013-01-18 03:12:00,27.4,5.8,30.08,NNW,331,5.0,15.0,39,0.00,,,0.01,0,HR-IXPWINDi_r2_v1.2.,2013-01-18 08:12:00,
2013-01-18 03:17:00,27.3,6.2,30.08,NNW,341,5.0,13.0,40,0.00,,,0.01,0,HR-IXPWINDi_r2_v1.2.,2013-01-18 08:17:00,
2013-01-18 03:22:00,27.1,8.1,30.07,North,360,7.0,17.0,44,0.00,,,0.01,0,HR-IXPWINDi_r2_v1.2.,2013-01-18 08:22:00,
2013-01-18 03:27:00,26.8,8.4,30.07,NNW,344,10.0,17.0,45,0.00,,,0.01,0,HR-IXPWINDi_r2_v1.2.,2013-01-18 08:27:00,
2013-01-18 03:33:00,26.5,7.1,30.06,North,355,12.0,18.0,43,0.00,,,0.01,0,HR-IXPWINDi_r2_v1.2.,2013-01-18 08:33:00,
2013-01-18 03:38:00,26.1,4.6,30.07,NNW,348,8.0,20.0,39,0.00,,,0.01,0,HR-IXPWINDi_r2_v1.2.,2013-01-18 08:38:00,
2013-01-18 03:43:00,25.8,3.2,30.09,North,11,17.0,20.0,37,0.00,,,0.01,0,HR-IXPWINDi_r2_v1.2.,2013-01-18 08:43:00,
2013-01-18 03:48:00,25.2,0.2,30.10,NNW,333,7.0,21.0,33,0.00,,,0.01,0,HR-IXPWINDi_r2_v1.2.,2013-01-18 08:48:00,
2013-01-18 03:53:00,25.0,0.0,30.11,NNW,335,14.0,21.0,33,0.00,,,0.01,0,HR-IXPWINDi_r2_v1.2.,2013-01-18 08:53:00,
2013-01-18 03:58:00,24.7,-2.7,30.12,NNW,344,13.0,25.0,29,0.00,,,0.01,0,HR-IXPWINDi_r2_v1.2.,2013-01-18 08:58:00,
2013-01-18 04:04:00,24.5,-2.9,30.12,NW,325,7.0,25.0,29,0.00,,,0.01,0,HR-IXPWINDi_r2_v1.2.,2013-01-18 09:04:00,
2013-01-18 04:09:00,24.5,-2.2,30.12,NNW,338,7.0,17.0,30,0.00,,,0.01,0,HR-IXPWINDi_r2_v1.2.,2013-01-18 09:09:00,
2013-01-18 04:14:00,24.4,-1.6,30.11,NNW,329,9.0,17.0,31,0.00,,,0.01,0,HR-IXPWINDi_r2_v1.2.,2013-01-18 09:14:00,
2013-01-18 04:19:00,24.2,-1.8,30.11,North,355,11.0,17.0,31,0.00,,,0.01,0,HR-IXPWINDi_r2_v1.2.,2013-01-18 09:19:00,
2013-01-18 04:24:00,24.1,-1.2,30.11,NNW,338,9.0,16.0,32,0.00,,,0.01,0,HR-IXPWINDi_r2_v1.2.,2013-01-18 09:24:00,
2013-01-18 04:29:00,23.9,-0.1,30.11,North,360,7.0,16.0,34,0.00,,,0.01,0,HR-IXPWINDi_r2_v1.2.,2013-01-18 09:29:00,
2013-01-18 04:34:00,23.8,1.4,30.10,North,5,10.0,15.0,37,0.00,,,0.01,0,HR-IXPWINDi_r2_v1.2.,2013-01-18 09:34:00,
2013-01-18 04:39:00,23.7,2.4,30.11,NW,325,1.0,13.0,39,0.00,,,0.01,0,HR-IXPWINDi_r2_v1.2.,2013-01-18 09:39:00,
2013-01-18 04:45:00,23.6,3.4,30.12,NW,326,10.0,17.0,41,0.00,,,0.01,0,HR-IXPWINDi_r2_v1.2.,2013-01-18 09:45:00,
2013-01-18 04:50:00,23.4,3.2,30.14,NW,315,9.0,17.0,41,0.00,,,0.01,0,HR-IXPWINDi_r2_v1.2.,2013-01-18 09:50:00,
2013-01-18 04:55:00,23.3,3.1,30.13,North,355,5.0,16.0,41,0.00,,,0.01,0,HR-IXPWINDi_r2_v1.2.,2013-01-18 09:55:00,
2013-01-18 05:00:00,23.1,3.0,30.13,NW,323,9.0,16.0,41,0.00,,,0.01,0,HR-IXPWINDi_r2_v1.2.,2013-01-18 10:00:00,
2013-01-18 05:05:00,23.2,3.6,30.14,NNW,346,7.0,14.0,42,0.00,,,0.01,0,HR-IXPWINDi_r2_v1.2.,2013-01-18 10:05:00,
2013-01-18 05:11:00,23.0,3.4,30.14,North,5,4.0,16.0,42,0.00,,,0.01,0,HR-IXPWINDi_r2_v1.2.,2013-01-18 10:11:00,
2013-01-18 05:16:00,22.9,3.3,30.14,NNW,348,5.0,16.0,42,0.00,,,0.01,0,HR-IXPWINDi_r2_v1.2.,2013-01-18 10:16:00,
2013-01-18 05:21:00,22.5,-0.1,30.14,NNW,334,11.0,15.0,36,0.00,,,0.01,0,HR-IXPWINDi_r2_v1.2.,2013-01-18 10:21:00,
2013-01-18 05:26:00,22.0,-1.2,30.14,NW,321,14.0,21.0,35,0.00,,,0.01,0,HR-IXPWINDi_r2_v1.2.,2013-01-18 10:26:00,
2013-01-18 05:31:00,21.7,-1.4,30.15,NW,318,8.0,21.0,35,0.00,,,0.01,0,HR-IXPWINDi_r2_v1.2.,2013-01-18 10:31:00,
2013-01-18 05:36:00,21.4,-1.7,30.15,NNW,330,9.0,17.0,35,0.00,,,0.01,0,HR-IXPWINDi_r2_v1.2.,2013-01-18 10:36:00,
2013-01-18 05:41:00,21.1,-1.4,30.16,North,355,7.0,19.0,36,0.00,,,0.01,0,HR-IXPWINDi_r2_v1.2.,2013-01-18 10:41:00,
2013-01-18 05:47:00,20.9,-0.4,30.17,NNW,329,6.0,19.0,38,0.00,,,0.01,0,HR-IXPWINDi_r2_v1.2.,2013-01-18 10:47:00,
2013-01-18 05:52:00,20.7,0.3,30.17,North,350,11.0,16.0,40,0.00,,,0.01,0,HR-IXPWINDi_r2_v1.2.,2013-01-18 10:52:00,
2013-01-18 05:57:00,20.7,0.3,30.18,North,350,11.0,16.0,40,0.00,,,0.01,0,HR-IXPWINDi_r2_v1.2.,2013-01-18 10:57:00,
2013-01-18 06:02:00,20.7,0.3,30.19,North,350,11.0,13.0,40,0.00,,,0.01,0,HR-IXPWINDi_r2_v1.2.,2013-01-18 11:02:00,
2013-01-18 06:08:00,-999.0,99.9,30.19,North,-999,-999.0,-999.0,-999,99.99,,,0.01,,HR-IXPWINDi_r2_v1.2.,2013-01-18 11:08:00,
2013-01-18 06:13:00,-999.0,99.9,30.20,North,-999,-999.0,-999.0,-999,99.99,,,0.01,,HR-IXPWINDi_r2_v1.2.,2013-01-18 11:13:00,
2013-01-18 06:18:00,-999.0,99.9,30.20,North,-999,-999.0,-999.0,-999,99.99,,,0.01,,HR-IXPWINDi_r2_v1.2.,2013-01-18 11:18:00,
2013-01-18 06:23:00,-999.0,99.9,30.20,North,-999,-999.0,-999.0,-999,99.99,,,0.01,,HR-IXPWINDi_r2_v1.2.,2013-01-18 11:23:00,
2013-01-18 06:29:00,-999.0,99.9,30.21,North,-999,-999.0,-999.0,-999,99.99,,,0.01,,HR-IXPWINDi_r2_v1.2.,2013-01-18 11:29:00,
2013-01-18 06:34:00,-999.0,99.9,30.21,North,-999,-999.0,-999.0,-999,99.99,,,0.01,,HR-IXPWINDi_r2_v1.2.,2013-01-18 11:34:00,
2013-01-18 06:39:00,-999.0,99.9,30.21,North,-999,-999.0,-999.0,-999,99.99,,,0.01,,HR-IXPWINDi_r2_v1.2.,2013-01-18 11:39:00,
2013-01-18 06:44:00,-999.0,99.9,30.21,North,-999,-999.0,-999.0,-999,99.99,,,0.01,,HR-IXPWINDi_r2_v1.2.,2013-01-18 11:44:00,
2013-01-18 06:49:00,-999.0,99.9,30.22,North,-999,-999.0,-999.0,-999,99.99,,,0.01,,HR-IXPWINDi_r2_v1.2.,2013-01-18 11:49:00,
2013-01-18 06:55:00,-999.0,99.9,30.22,North,-999,-999.0,-999.0,-999,99.99,,,0.01,,HR-IXPWINDi_r2_v1.2.,2013-01-18 11:55:00,
2013-01-18 07:00:00,-999.0,99.9,30.22,North,-999,-999.0,-999.0,-999,99.99,,,0.01,,HR-IXPWINDi_r2_v1.2.,2013-01-18 12:00:00,
2013-01-18 07:05:00,-999.0,99.9,30.23,North,-999,-999.0,-999.0,-999,99.99,,,0.01,,HR-IXPWINDi_r2_v1.2.,2013-01-18 12:05:00,
2013-01-18 07:10:00,-999.0,99.9,30.23,North,-999,-999.0,-999.0,-999,99.99,,,0.01,,HR-IXPWINDi_r2_v1.2.,2013-01-18 12:10:00,
2013-01-18 07:15:00,-999.0,99.9,30.24,North,-999,-999.0,-999.0,-999,99.99,,,0.01,,HR-IXPWINDi_r2_v1.2.,2013-01-18 12:15:00,
2013-01-18 07:20:00,-999.0,99.9,30.24,North,-999,-999.0,-999.0,-999,99.99,,,0.01,,HR-IXPWINDi_r2_v1.2.,2013-01-18 12:20:00,
2013-01-18 07:26:00,-999.0,99.9,30.24,North,-999,-999.0,-999.0,-999,99.99,,,0.01,,HR-IXPWINDi_r2_v1.2.,2013-01-18 12:26:00,
2013-01-18 07:31:00,-999.0,99.9,30.25,North,-999,-999.0,-999.0,-999,99.99,,,0.01,,HR-IXPWINDi_r2_v1.2.,2013-01-18 12:31:00,
2013-01-18 07:36:00,-999.0,99.9,30.25,North,-999,-999.0,-999.0,-999,99.99,,,0.01,,HR-IXPWINDi_r2_v1.2.,2013-01-18 12:36:00,
2013-01-18 07:41:00,-999.0,99.9,30.26,North,-999,-999.0,-999.0,-999,99.99,,,0.01,,HR-IXPWINDi_r2_v1.2.,2013-01-18 12:41:00,
2013-01-18 07:46:00,18.0,-1.4,30.27,NNW,345,10.0,255.0,41,0.00,,,0.01,46,HR-IXPWINDi_r2_v1.2.,2013-01-18 12:46:00,
2013-01-18 07:51:00,18.0,-1.4,30.27,North,5,7.0,255.0,41,0.00,,,0.01,58,HR-IXPWINDi_r2_v1.2.,2013-01-18 12:51:00,
2013-01-18 07:57:00,18.0,-1.4,30.27,NNW,327,7.0,12.0,41,0.00,,,0.01,70,HR-IXPWINDi_r2_v1.2.,2013-01-18 12:57:00,
2013-01-18 08:02:00,18.0,-1.4,30.27,North,5,10.0,17.0,41,0.00,,,0.01,88,HR-IXPWINDi_r2_v1.2.,2013-01-18 13:02:00,
2013-01-18 08:07:00,17.9,-1.5,30.28,NW,317,13.0,20.0,41,0.00,,,0.01,104,HR-IXPWINDi_r2_v1.2.,2013-01-18 13:07:00,
2013-01-18 08:12:00,17.8,-1.6,30.28,North,355,8.0,20.0,41,0.00,,,0.01,120,HR-IXPWINDi_r2_v1.2.,2013-01-18 13:12:00,
2013-01-18 08:18:00,17.9,-1.5,30.29,NNW,331,4.0,18.0,41,0.00,,,0.01,135,HR-IXPWINDi_r2_v1.2.,2013-01-18 13:18:00,
2013-01-18 08:23:00,18.1,-1.3,30.29,NNW,336,14.0,18.0,41,0.00,,,0.01,155,HR-IXPWINDi_r2_v1.2.,2013-01-18 13:23:00,
2013-01-18 08:28:00,18.3,-1.2,30.30,NW,319,4.0,16.0,41,0.00,,,0.01,169,HR-IXPWINDi_r2_v1.2.,2013-01-18 13:28:00,
2013-01-18 08:33:00,18.4,-0.6,30.30,North,10,7.0,16.0,42,0.00,,,0.01,185,HR-IXPWINDi_r2_v1.2.,2013-01-18 13:33:00,
2013-01-18 08:38:00,18.8,-0.2,30.30,NNE,24,3.0,16.0,42,0.00,,,0.01,202,HR-IXPWINDi_r2_v1.2.,2013-01-18 13:38:00,
2013-01-18 08:43:00,18.8,-0.7,30.31,NNW,333,8.0,13.0,41,0.00,,,0.01,218,HR-IXPWINDi_r2_v1.2.,2013-01-18 13:43:00,
2013-01-18 08:49:00,18.8,-0.7,30.31,North,5,9.0,15.0,41,0.00,,,0.01,234,HR-IXPWINDi_r2_v1.2.,2013-01-18 13:49:00,
2013-01-18 08:54:00,18.6,-1.9,30.31,NW,313,9.0,15.0,39,0.00,,,0.01,251,HR-IXPWINDi_r2_v1.2.,2013-01-18 13:54:00,
2013-01-18 08:59:00,18.4,-2.7,30.32,North,355,14.0,19.0,38,0.00,,,0.01,262,HR-IXPWINDi_r2_v1.2.,2013-01-18 13:59:00,
2013-01-18 09:04:00,18.6,-2.5,30.32,NW,320,11.0,19.0,38,0.00,,,0.01,276,HR-IXPWINDi_r2_v1.2.,2013-01-18 14:04:00,
2013-01-18 09:09:00,18.7,-3.5,30.32,NNW,330,14.0,19.0,36,0.00,,,0.01,287,HR-IXPWINDi_r2_v1.2.,2013-01-18 14:09:00,
2013-01-18 09:15:00,18.4,-4.4,30.33,WNW,299,9.0,20.0,35,0.00,,,0.01,299,HR-IXPWINDi_r2_v1.2.,2013-01-18 14:15:00,
2013-01-18 09:20:00,18.5,-4.9,30.33,NNW,344,13.0,23.0,34,0.00,,,0.01,311,HR-IXPWINDi_r2_v1.2.,2013-01-18 14:20:00,
2013-01-18 09:25:00,19.0,-3.8,30.33,North,355,1.0,23.0,35,0.00,,,0.01,322,HR-IXPWINDi_r2_v1.2.,2013-01-18 14:25:00,
2013-01-18 09:30:00,19.1,-5.6,30.33,NNW,342,4.0,18.0,32,0.00,,,0.01,332,HR-IXPWINDi_r2_v1.2.,2013-01-18 14:30:00,
2013-01-18 09:35:00,19.1,-5.6,30.34,NW,325,13.0,17.0,32,0.00,,,0.01,343,HR-IXPWINDi_r2_v1.2.,2013-01-18 14:35:00,
2013-01-18 09:41:00,19.2,-5.5,30.34,NW,313,9.0,16.0,32,0.00,,,0.01,352,HR-IXPWINDi_r2_v1.2.,2013-01-18 14:41:00,
2013-01-18 09:46:00,19.5,-5.3,30.34,West,281,6.0,16.0,32,0.00,,,0.01,362,HR-IXPWINDi_r2_v1.2.,2013-01-18 14:46:00,
2013-01-18 09:51:00,20.2,-3.4,30.34,NNW,331,12.0,15.0,34,0.00,,,0.01,373,HR-IXPWINDi_r2_v1.2.,2013-01-18 14:51:00,
2013-01-18 09:56:00,19.8,-5.0,30.34,NNW,332,11.0,15.0,32,0.00,,,0.01,380,HR-IXPWINDi_r2_v1.2.,2013-01-18 14:56:00,
2013-01-18 10:02:00,19.5,-5.9,30.34,NW,304,6.0,19.0,31,0.00,,,0.01,390,HR-IXPWINDi_r2_v1.2.,2013-01-18 15:02:00,
2013-01-18 10:07:00,19.4,-6.0,30.34,NW,313,10.0,19.0,31,0.00,,,0.01,397,HR-IXPWINDi_r2_v1.2.,2013-01-18 15:07:00,
2013-01-18 10:12:00,19.8,-4.4,30.34,NNW,339,7.0,17.0,33,0.00,,,0.01,404,HR-IXPWINDi_r2_v1.2.,2013-01-18 15:12:00,
2013-01-18 10:17:00,20.2,-3.4,30.34,North,5,2.0,15.0,34,0.00,,,0.01,413,HR-IXPWINDi_r2_v1.2.,2013-01-18 15:17:00,
2013-01-18 10:22:00,20.0,-4.2,30.34,North,355,10.0,15.0,33,0.00,,,0.01,418,HR-IXPWINDi_r2_v1.2.,2013-01-18 15:22:00,
2013-01-18 10:27:00,19.9,-4.9,30.34,NNW,327,7.0,18.0,32,0.00,,,0.01,427,HR-IXPWINDi_r2_v1.2.,2013-01-18 15:27:00,
2013-01-18 10:33:00,20.0,-4.2,30.34,NNW,332,10.0,18.0,33,0.00,,,0.01,434,HR-IXPWINDi_r2_v1.2.,2013-01-18 15:33:00,
2013-01-18 10:38:00,20.2,-4.6,30.34,NW,315,11.0,16.0,32,0.00,,,0.01,439,HR-IXPWINDi_r2_v1.2.,2013-01-18 15:38:00,
2013-01-18 10:43:00,19.9,-4.9,30.34,WNW,303,13.0,19.0,32,0.00,,,0.01,446,HR-IXPWINDi_r2_v1.2.,2013-01-18 15:43:00,
2013-01-18 10:48:00,20.8,-3.5,30.35,NNE,31,3.0,19.0,33,0.00,,,0.01,450,HR-IXPWINDi_r2_v1.2.,2013-01-18 15:48:00,
2013-01-18 10:53:00,20.8,-4.8,30.35,NNW,328,6.0,17.0,31,0.00,,,0.01,455,HR-IXPWINDi_r2_v1.2.,2013-01-18 15:53:00,
2013-01-18 10:58:00,20.3,-4.6,30.34,NW,322,11.0,20.0,32,0.00,,,0.01,459,HR-IXPWINDi_r2_v1.2.,2013-01-18 15:58:00,
2013-01-18 11:03:00,21.0,-3.3,30.35,NW,304,13.0,20.0,33,0.00,,,0.01,462,HR-IXPWINDi_r2_v1.2.,2013-01-18 16:03:00,
2013-01-18 11:08:00,20.4,-4.5,30.34,NW,311,12.0,20.0,32,0.00,,,0.01,466,HR-IXPWINDi_r2_v1.2.,2013-01-18 16:08:00,
2013-01-18 11:14:00,20.7,-3.6,30.34,WSW,254,20.0,20.0,33,0.00,,,0.01,471,HR-IXPWINDi_r2_v1.2.,2013-01-18 16:14:00,
2013-01-18 11:19:00,20.8,-3.5,30.34,NNE,14,5.0,20.0,33,0.00,,,0.01,473,HR-IXPWINDi_r2_v1.2.,2013-01-18 16:19:00,
2013-01-18 11:24:00,20.9,-4.0,30.34,North,5,11.0,24.0,32,0.00,,,0.01,476,HR-IXPWINDi_r2_v1.2.,2013-01-18 16:24:00,
2013-01-18 11:29:00,21.0,-3.3,30.34,NW,321,11.0,24.0,33,0.00,,,0.01,478,HR-IXPWINDi_r2_v1.2.,2013-01-18 16:29:00,
2013-01-18 11:35:00,21.2,-3.1,30.34,WSW,257,11.0,16.0,33,0.00,,,0.01,480,HR-IXPWINDi_r2_v1.2.,2013-01-18 16:35:00,
2013-01-18 11:40:00,21.0,-3.3,30.35,West,281,9.0,19.0,33,0.00,,,0.01,478,HR-IXPWINDi_r2_v1.2.,2013-01-18 16:40:00,
2013-01-18 11:45:00,20.9,-3.4,30.34,NW,306,10.0,19.0,33,0.00,,,0.01,482,HR-IXPWINDi_r2_v1.2.,2013-01-18 16:45:00,
2013-01-18 11:50:00,20.8,-3.5,30.34,WNW,290,16.0,18.0,33,0.00,,,0.01,480,HR-IXPWINDi_r2_v1.2.,2013-01-18 16:50:00,
2013-01-18 11:55:00,21.4,-2.9,30.34,WNW,291,6.0,17.0,33,0.00,,,0.01,480,HR-IXPWINDi_r2_v1.2.,2013-01-18 16:55:00,
2013-01-18 12:01:00,22.0,-2.4,30.34,West,261,9.0,16.0,33,0.00,,,0.00,480,HR-IXPWINDi_r2_v1.2.,2013-01-18 17:01:00,
2013-01-18 12:06:00,21.5,-3.5,30.34,NNW,340,1.0,23.0,32,0.00,,,0.00,480,HR-IXPWINDi_r2_v1.2.,2013-01-18 17:06:00,
2013-01-18 12:11:00,21.7,-2.7,30.34,WNW,296,12.0,23.0,33,0.00,,,0.00,478,HR-IXPWINDi_r2_v1.2.,2013-01-18 17:11:00,
2013-01-18 12:16:00,22.4,-2.7,30.34,WNW,286,5.0,16.0,32,0.00,,,0.00,476,HR-IXPWINDi_r2_v1.2.,2013-01-18 17:16:00,
2013-01-18 12:22:00,22.1,-3.0,30.34,NW,317,14.0,21.0,32,0.00,,,0.00,473,HR-IXPWINDi_r2_v1.2.,2013-01-18 17:22:00,
2013-01-18 12:27:00,22.2,-2.2,30.34,NW,323,17.0,21.0,33,0.00,,,0.00,475,HR-IXPWINDi_r2_v1.2.,2013-01-18 17:27:00,
2013-01-18 12:32:00,22.9,-2.3,30.34,NW,316,7.0,20.0,32,0.00,,,0.00,469,HR-IXPWINDi_r2_v1.2.,2013-01-18 17:32:00,
2013-01-18 12:37:00,23.0,-3.5,30.34,NW,306,11.0,20.0,30,0.00,,,0.00,468,HR-IXPWINDi_r2_v1.2.,2013-01-18 17:37:00,
2013-01-18 12:43:00,22.9,-3.6,30.34,NW,309,15.0,22.0,30,0.00,,,0.00,464,HR-IXPWINDi_r2_v1.2.,2013-01-18 17:43:00,
2013-01-18 12:48:00,22.9,-3.6,30.34,NW,304,14.0,23.0,30,0.00,,,0.00,459,HR-IXPWINDi_r2_v1.2.,2013-01-18 17:48:00,
2013-01-18 12:53:00,22.8,-3.0,30.34,North,5,10.0,23.0,31,0.00,,,0.00,455,HR-IXPWINDi_r2_v1.2.,2013-01-18 17:53:00,
2013-01-18 12:58:00,23.3,-2.6,30.34,WNW,295,8.0,21.0,31,0.00,,,0.00,452,HR-IXPWINDi_r2_v1.2.,2013-01-18 17:58:00,
2013-01-18 13:03:00,23.4,-2.5,30.34,WNW,292,7.0,23.0,31,0.00,,,0.00,445,HR-IXPWINDi_r2_v1.2.,2013-01-18 18:03:00,
2013-01-18 13:08:00,23.5,-3.1,30.34,NW,304,13.0,23.0,30,0.00,,,0.00,439,HR-IXPWINDi_r2_v1.2.,2013-01-18 18:08:00,
2013-01-18 13:14:00,23.5,-1.1,30.34,NNW,334,6.0,18.0,33,0.00,,,0.00,431,HR-IXPWINDi_r2_v1.2.,2013-01-18 18:14:00,
2013-01-18 13:19:00,24.0,-2.0,30.35,WSW,252,9.0,20.0,31,0.00,,,0.00,427,HR-IXPWINDi_r2_v1.2.,2013-01-18 18:19:00,
2013-01-18 13:24:00,23.9,-2.1,30.35,NNW,348,6.0,20.0,31,0.00,,,0.00,422,HR-IXPWINDi_r2_v1.2.,2013-01-18 18:24:00,
2013-01-18 13:29:00,24.3,-2.4,30.35,North,350,8.0,17.0,30,0.00,,,0.00,415,HR-IXPWINDi_r2_v1.2.,2013-01-18 18:29:00,
2013-01-18 13:34:00,24.0,-3.4,30.35,NNW,329,2.0,17.0,29,0.00,,,0.00,408,HR-IXPWINDi_r2_v1.2.,2013-01-18 18:34:00,
2013-01-18 13:40:00,24.5,-2.2,30.35,NNW,336,7.0,16.0,30,0.00,,,0.00,399,HR-IXPWINDi_r2_v1.2.,2013-01-18 18:40:00,
2013-01-18 13:45:00,24.8,-1.3,30.35,WNW,284,8.0,21.0,31,0.00,,,0.00,392,HR-IXPWINDi_r2_v1.2.,2013-01-18 18:45:00,
2013-01-18 13:50:00,24.5,-2.2,30.35,West,276,17.0,24.0,30,0.00,,,0.00,381,HR-IXPWINDi_r2_v1.2.,2013-01-18 18:50:00,
2013-01-18 13:55:00,24.2,-2.5,30.35,WNW,285,8.0,24.0,30,0.00,,,0.00,373,HR-IXPWINDi_r2_v1.2.,2013-01-18 18:55:00,
2013-01-18 14:00:00,24.4,-2.3,30.36,NW,325,8.0,22.0,30,0.00,,,0.00,364,HR-IXPWINDi_r2_v1.2.,2013-01-18 19:00:00,
2013-01-18 14:05:00,24.9,-1.2,30.36,West,280,1.0,17.0,31,0.00,,,0.00,355,HR-IXPWINDi_r2_v1.2.,2013-01-18 19:05:00,
2013-01-18 14:10:00,25.1,-1.7,30.36,NNW,337,6.0,15.0,30,0.00,,,0.00,346,HR-IXPWINDi_r2_v1.2.,2013-01-18 19:10:00,
2013-01-18 14:16:00,25.2,-0.9,30.36,WNW,286,3.0,14.0,31,0.00,,,0.00,334,HR-IXPWINDi_r2_v1.2.,2013-01-18 19:16:00,
2013-01-18 14:21:00,24.9,-1.9,30.36,WSW,248,3.0,17.0,30,0.00,,,0.00,325,HR-IXPWINDi_r2_v1.2.,2013-01-18 19:21:00,
2013-01-18 14:26:00,24.8,-2.7,30.36,WNW,293,8.0,17.0,29,0.00,,,0.00,315,HR-IXPWINDi_r2_v1.2.,2013-01-18 19:26:00,
2013-01-18 14:31:00,24.8,-2.7,30.36,WNW,289,5.0,16.0,29,0.00,,,0.00,302,HR-IXPWINDi_r2_v1.2.,2013-01-18 19:31:00,
2013-01-18 14:36:00,25.1,-0.3,30.36,WSW,249,8.0,16.0,32,0.00,,,0.00,292,HR-IXPWINDi_r2_v1.2.,2013-01-18 19:36:00,
2013-01-18 14:41:00,25.1,-1.7,30.36,NW,316,8.0,14.0,30,0.00,,,0.00,278,HR-IXPWINDi_r2_v1.2.,2013-01-18 19:41:00,
2013-01-18 14:47:00,25.2,-2.3,30.35,WSW,247,14.0,16.0,29,0.00,,,0.00,264,HR-IXPWINDi_r2_v1.2.,2013-01-18 19:47:00,
2013-01-18 14:52:00,25.6,-3.5,30.36,NNW,334,9.0,21.0,27,0.00,,,0.00,250,HR-IXPWINDi_r2_v1.2.,2013-01-18 19:52:00,
2013-01-18 14:57:00,25.5,-3.5,30.36,North,355,5.0,22.0,27,0.00,,,0.00,234,HR-IXPWINDi_r2_v1.2.,2013-01-18 19:57:00,
2013-01-18 15:02:00,25.5,-3.5,30.36,NW,312,11.0,24.0,27,0.00,,,0.00,216,HR-IXPWINDi_r2_v1.2.,2013-01-18 20:02:00,
2013-01-18 15:07:00,25.3,-3.0,30.37,WNW,288,15.0,24.0,28,0.00,,,0.00,200,HR-IXPWINDi_r2_v1.2.,2013-01-18 20:07:00,
2013-01-18 15:13:00,25.5,-2.1,30.37,WNW,289,10.0,18.0,29,0.00,,,0.00,183,HR-IXPWINDi_r2_v1.2.,2013-01-18 20:13:00,
2013-01-18 15:18:00,25.1,-3.9,30.37,West,264,18.0,25.0,27,0.00,,,0.00,165,HR-IXPWINDi_r2_v1.2.,2013-01-18 20:18:00,
2013-01-18 15:23:00,25.2,-3.8,30.37,NNW,329,13.0,25.0,27,0.00,,,0.00,149,HR-IXPWINDi_r2_v1.2.,2013-01-18 20:23:00,
2013-01-18 15:28:00,25.0,-4.0,30.37,NW,308,18.0,23.0,27,0.00,,,0.00,134,HR-IXPWINDi_r2_v1.2.,2013-01-18 20:28:00,
2013-01-18 15:33:00,25.1,-3.9,30.37,NW,319,10.0,19.0,27,0.00,,,0.00,118,HR-IXPWINDi_r2_v1.2.,2013-01-18 20:33:00,
2013-01-18 15:39:00,24.9,-4.1,30.37,West,259,11.0,20.0,27,0.00,,,0.00,100,HR-IXPWINDi_r2_v1.2.,2013-01-18 20:39:00,
2013-01-18 15:44:00,24.9,-3.3,30.37,WNW,284,9.0,20.0,28,0.00,,,0.00,86,HR-IXPWINDi_r2_v1.2.,2013-01-18 20:44:00,
2013-01-18 15:49:00,24.8,-4.1,30.37,NW,315,7.0,17.0,27,0.00,,,0.00,72,HR-IXPWINDi_r2_v1.2.,2013-01-18 20:49:00,
2013-01-18 15:55:00,24.7,-3.5,30.37,NW,322,9.0,17.0,28,0.00,,,0.00,60,HR-IXPWINDi_r2_v1.2.,2013-01-18 20:55:00,
2013-01-18 16:00:00,24.8,-2.7,30.37,WNW,303,6.0,17.0,29,0.00,,,0.00,23,HR-IXPWINDi_r2_v1.2.,2013-01-18 21:00:00,
2013-01-18 16:05:00,24.7,-2.7,30.37,North,360,5.0,13.0,29,0.00,,,0.00,19,HR-IXPWINDi_r2_v1.2.,2013-01-18 21:05:00,
2013-01-18 16:10:00,24.7,-2.7,30.37,NW,312,0.0,12.0,29,0.00,,,0.00,18,HR-IXPWINDi_r2_v1.2.,2013-01-18 21:10:00,
2013-01-18 16:15:00,24.7,-2.0,30.38,SSW,207,6.0,10.0,30,0.00,,,0.00,16,HR-IXPWINDi_r2_v1.2.,2013-01-18 21:15:00,
2013-01-18 16:21:00,24.8,-1.3,30.38,WNW,294,6.0,16.0,31,0.00,,,0.00,12,HR-IXPWINDi_r2_v1.2.,2013-01-18 21:21:00,
2013-01-18 16:26:00,24.7,-2.0,30.39,NW,306,4.0,16.0,30,0.00,,,0.00,12,HR-IXPWINDi_r2_v1.2.,2013-01-18 21:26:00,
2013-01-18 16:31:00,24.5,-1.5,30.39,West,272,4.0,13.0,31,0.00,,,0.00,9,HR-IXPWINDi_r2_v1.2.,2013-01-18 21:31:00,
2013-01-18 16:36:00,24.3,-1.0,30.39,WNW,287,3.0,12.0,32,0.00,,,0.00,5,HR-IXPWINDi_r2_v1.2.,2013-01-18 21:36:00,
2013-01-18 16:41:00,24.2,-1.8,30.39,NW,315,2.0,12.0,31,0.00,,,0.00,0,HR-IXPWINDi_r2_v1.2.,2013-01-18 21:41:00,
2013-01-18 16:47:00,24.1,-1.2,30.39,North,355,6.0,12.0,32,0.00,,,0.00,0,HR-IXPWINDi_r2_v1.2.,2013-01-18 21:47:00,
2013-01-18 16:52:00,23.9,-2.1,30.40,WNW,292,2.0,10.0,31,0.00,,,0.00,0,HR-IXPWINDi_r2_v1.2.,2013-01-18 21:52:00,
2013-01-18 16:57:00,23.8,-2.1,30.40,NW,310,5.0,12.0,31,0.00,,,0.00,0,HR-IXPWINDi_r2_v1.2.,2013-01-18 21:57:00,
2013-01-18 17:02:00,23.7,-1.6,30.40,WNW,301,3.0,12.0,32,0.00,,,0.00,0,HR-IXPWINDi_r2_v1.2.,2013-01-18 22:02:00,
2013-01-18 17:08:00,23.6,-1.6,30.40,NW,316,3.0,9.0,32,0.00,,,0.00,0,HR-IXPWINDi_r2_v1.2.,2013-01-18 22:08:00,
2013-01-18 17:13:00,23.5,-1.1,30.40,WNW,298,2.0,9.0,33,0.00,,,0.00,0,HR-IXPWINDi_r2_v1.2.,2013-01-18 22:13:00,
2013-01-18 17:18:00,23.5,-1.7,30.41,West,265,3.0,8.0,32,0.00,,,0.00,0,HR-IXPWINDi_r2_v1.2.,2013-01-18 22:18:00,
2013-01-18 17:23:00,23.4,-1.8,30.41,WNW,294,3.0,8.0,32,0.00,,,0.00,0,HR-IXPWINDi_r2_v1.2.,2013-01-18 22:23:00,
2013-01-18 17:29:00,23.4,-1.2,30.41,NW,308,1.0,8.0,33,0.00,,,0.00,0,HR-IXPWINDi_r2_v1.2.,2013-01-18 22:29:00,
2013-01-18 17:34:00,23.4,-1.2,30.42,WSW,252,1.0,5.0,33,0.00,,,0.00,0,HR-IXPWINDi_r2_v1.2.,2013-01-18 22:34:00,
2013-01-18 17:39:00,23.4,-0.6,30.42,WNW,291,6.0,6.0,34,0.00,,,0.00,0,HR-IXPWINDi_r2_v1.2.,2013-01-18 22:39:00,
2013-01-18 17:44:00,23.5,0.0,30.42,SW,227,6.0,8.0,35,0.00,,,0.00,0,HR-IXPWINDi_r2_v1.2.,2013-01-18 22:44:00,
2013-01-18 17:49:00,23.9,2.1,30.42,WSW,237,6.0,9.0,38,0.00,,,0.00,0,HR-IXPWINDi_r2_v1.2.,2013-01-18 22:49:00,
2013-01-18 17:54:00,23.9,0.9,30.42,WNW,289,5.0,13.0,36,0.00,,,0.00,0,HR-IXPWINDi_r2_v1.2.,2013-01-18 22:54:00,
2013-01-18 18:00:00,23.8,1.4,30.42,WSW,251,7.0,13.0,37,0.00,,,0.00,0,HR-IXPWINDi_r2_v1.2.,2013-01-18 23:00:00,
2013-01-18 18:05:00,23.7,1.3,30.43,West,261,6.0,11.0,37,0.00,,,0.00,0,HR-IXPWINDi_r2_v1.2.,2013-01-18 23:05:00,
2013-01-18 18:10:00,23.6,1.8,30.43,WSW,252,5.0,12.0,38,0.00,,,0.00,0,HR-IXPWINDi_r2_v1.2.,2013-01-18 23:10:00,
2013-01-18 18:15:00,23.5,1.7,30.43,WNW,291,2.0,12.0,38,0.00,,,0.00,0,HR-IXPWINDi_r2_v1.2.,2013-01-18 23:15:00,
2013-01-18 18:20:00,23.3,1.5,30.43,NW,304,3.0,8.0,38,0.00,,,0.00,0,HR-IXPWINDi_r2_v1.2.,2013-01-18 23:20:00,
2013-01-18 18:26:00,23.3,1.0,30.43,WSW,246,0.0,9.0,37,0.00,,,0.00,0,HR-IXPWINDi_r2_v1.2.,2013-01-18 23:26:00,
2013-01-18 18:31:00,23.2,2.0,30.43,WNW,295,5.0,9.0,39,0.00,,,0.00,0,HR-IXPWINDi_r2_v1.2.,2013-01-18 23:31:00,
2013-01-18 18:36:00,23.1,1.3,30.44,West,272,5.0,6.0,38,0.00,,,0.00,0,HR-IXPWINDi_r2_v1.2.,2013-01-18 23:36:00,
2013-01-18 18:41:00,23.1,1.9,30.44,West,281,5.0,6.0,39,0.00,,,0.00,0,HR-IXPWINDi_r2_v1.2.,2013-01-18 23:41:00,
2013-01-18 18:46:00,23.1,1.3,30.44,WNW,282,5.0,7.0,38,0.00,,,0.00,0,HR-IXPWINDi_r2_v1.2.,2013-01-18 23:46:00,
2013-01-18 18:51:00,23.0,1.3,30.44,West,273,6.0,7.0,38,0.00,,,0.00,0,HR-IXPWINDi_r2_v1.2.,2013-01-18 23:51:00,
2013-01-18 18:57:00,23.1,1.9,30.44,WSW,250,2.0,7.0,39,0.00,,,0.00,0,HR-IXPWINDi_r2_v1.2.,2013-01-18 23:57:00,
2013-01-18 19:02:00,23.3,3.1,30.44,WSW,246,6.0,10.0,41,0.00,,,0.00,0,HR-IXPWINDi_r2_v1.2.,2013-01-19 00:02:00,
2013-01-18 19:07:00,23.3,1.5,30.44,West,261,8.0,10.0,38,0.00,,,0.00,0,HR-IXPWINDi_r2_v1.2.,2013-01-19 00:07:00,
2013-01-18 19:12:00,23.3,2.6,30.44,West,260,11.0,11.0,40,0.00,,,0.00,0,HR-IXPWINDi_r2_v1.2.,2013-01-19 00:12:00,
2013-01-18 19:17:00,23.4,2.7,30.44,West,263,7.0,13.0,40,0.00,,,0.00,0,HR-IXPWINDi_r2_v1.2.,2013-01-19 00:17:00,
2013-01-18 19:22:00,23.4,2.2,30.44,WSW,250,9.0,13.0,39,0.00,,,0.00,0,HR-IXPWINDi_r2_v1.2.,2013-01-19 00:22:00,
2013-01-18 19:27:00,23.5,3.8,30.45,SW,229,8.0,12.0,42,0.00,,,0.00,0,HR-IXPWINDi_r2_v1.2.,2013-01-19 00:27:00,
2013-01-18 19:33:00,23.5,2.8,30.44,WSW,246,9.0,12.0,40,0.00,,,0.00,0,HR-IXPWINDi_r2_v1.2.,2013-01-19 00:33:00,
2013-01-18 19:38:00,23.7,4.5,30.45,WSW,257,9.0,12.0,43,0.00,,,0.00,0,HR-IXPWINDi_r2_v1.2.,2013-01-19 00:38:00,
2013-01-18 19:43:00,23.7,3.5,30.45,SW,228,7.0,13.0,41,0.00,,,0.00,0,HR-IXPWINDi_r2_v1.2.,2013-01-19 00:43:00,
2013-01-18 19:48:00,23.7,3.0,30.45,WSW,247,9.0,14.0,40,0.00,,,0.00,0,HR-IXPWINDi_r2_v1.2.,2013-01-19 00:48:00,
2013-01-18 19:54:00,23.8,5.1,30.44,WSW,241,9.0,15.0,44,0.00,,,0.00,0,HR-IXPWINDi_r2_v1.2.,2013-01-19 00:54:00,
2013-01-18 19:59:00,23.8,5.1,30.44,SSW,211,14.0,17.0,44,0.00,,,0.00,0,HR-IXPWINDi_r2_v1.2.,2013-01-19 00:59:00,
2013-01-18 20:04:00,23.9,5.7,30.44,SW,227,9.0,17.0,45,0.00,,,0.00,0,HR-IXPWINDi_r2_v1.2.,2013-01-19 01:04:00,
2013-01-18 20:09:00,23.9,6.2,30.45,SSW,207,10.0,16.0,46,0.00,,,0.00,0,HR-IXPWINDi_r2_v1.2.,2013-01-19 01:09:00,
2013-01-18 20:14:00,23.9,5.7,30.45,SW,228,9.0,16.0,45,0.00,,,0.00,0,HR-IXPWINDi_r2_v1.2.,2013-01-19 01:14:00,
2013-01-18 20:20:00,23.9,6.2,30.44,WSW,246,9.0,15.0,46,0.00,,,0.00,0,HR-IXPWINDi_r2_v1.2.,2013-01-19 01:20:00,
2013-01-18 20:25:00,23.8,6.1,30.44,SSW,202,12.0,15.0,46,0.00,,,0.00,0,HR-IXPWINDi_r2_v1.2.,2013-01-19 01:25:00,
2013-01-18 20:30:00,24.0,6.3,30.44,WSW,244,14.0,16.0,46,0.00,,,0.00,0,HR-IXPWINDi_r2_v1.2.,2013-01-19 01:30:00,
2013-01-18 20:35:00,24.0,6.3,30.44,WSW,242,11.0,16.0,46,0.00,,,0.00,0,HR-IXPWINDi_r2_v1.2.,2013-01-19 01:35:00,
2013-01-18 20:40:00,24.0,6.7,30.45,WSW,245,11.0,16.0,47,0.00,,,0.00,0,HR-IXPWINDi_r2_v1.2.,2013-01-19 01:40:00,
2013-01-18 20:45:00,24.0,6.7,30.45,SSW,213,7.0,16.0,47,0.00,,,0.00,0,HR-IXPWINDi_r2_v1.2.,2013-01-19 01:45:00,
2013-01-18 20:51:00,24.0,7.7,30.45,SW,235,13.0,15.0,49,0.00,,,0.00,0,HR-IXPWINDi_r2_v1.2.,2013-01-19 01:51:00,
2013-01-18 20:56:00,23.9,6.2,30.45,SW,233,11.0,16.0,46,0.00,,,0.00,0,HR-IXPWINDi_r2_v1.2.,2013-01-19 01:56:00,
2013-01-18 21:01:00,24.0,6.7,30.44,SW,228,11.0,16.0,47,0.00,,,0.00,0,HR-IXPWINDi_r2_v1.2.,2013-01-19 02:01:00,
2013-01-18 21:06:00,24.1,6.8,30.44,SSW,213,11.0,17.0,47,0.00,,,0.00,0,HR-IXPWINDi_r2_v1.2.,2013-01-19 02:06:00,
2013-01-18 21:11:00,24.2,6.5,30.44,SSW,206,14.0,17.0,46,0.00,,,0.00,0,HR-IXPWINDi_r2_v1.2.,2013-01-19 02:11:00,
2013-01-18 21:16:00,24.3,6.1,30.44,SSW,195,11.0,16.0,45,0.00,,,0.00,0,HR-IXPWINDi_r2_v1.2.,2013-01-19 02:16:00,
2013-01-18 21:22:00,24.2,6.5,30.44,SW,226,13.0,16.0,46,0.00,,,0.00,0,HR-IXPWINDi_r2_v1.2.,2013-01-19 02:22:00,
2013-01-18 21:27:00,24.5,7.2,30.44,SW,219,16.0,18.0,47,0.00,,,0.00,0,HR-IXPWINDi_r2_v1.2.,2013-01-19 02:27:00,
2013-01-18 21:32:00,24.6,7.8,30.44,SW,222,13.0,19.0,48,0.00,,,0.00,0,HR-IXPWINDi_r2_v1.2.,2013-01-19 02:32:00,
2013-01-18 21:37:00,24.8,8.8,30.44,SSW,206,11.0,19.0,50,0.00,,,0.00,0,HR-IXPWINDi_r2_v1.2.,2013-01-19 02:37:00,
2013-01-18 21:43:00,25.1,9.1,30.43,SSW,205,17.0,20.0,50,0.00,,,0.00,0,HR-IXPWINDi_r2_v1.2.,2013-01-19 02:43:00,
2013-01-18 21:48:00,25.2,9.2,30.43,SSW,213,18.0,21.0,50,0.00,,,0.00,0,HR-IXPWINDi_r2_v1.2.,2013-01-19 02:48:00,
2013-01-18 21:53:00,25.3,8.4,30.43,SSW,207,13.0,21.0,48,0.00,,,0.00,0,HR-IXPWINDi_r2_v1.2.,2013-01-19 02:53:00,
2013-01-18 21:58:00,25.3,9.3,30.43,South,183,20.0,20.0,50,0.00,,,0.00,0,HR-IXPWINDi_r2_v1.2.,2013-01-19 02:58:00,
2013-01-18 22:03:00,25.3,10.2,30.43,SSW,199,16.0,22.0,52,0.00,,,0.00,0,HR-IXPWINDi_r2_v1.2.,2013-01-19 03:03:00,
2013-01-18 22:08:00,25.2,9.7,30.44,SSW,202,14.0,22.0,51,0.00,,,0.00,0,HR-IXPWINDi_r2_v1.2.,2013-01-19 03:08:00,
2013-01-18 22:13:00,25.2,10.5,30.43,SW,221,14.0,19.0,53,0.00,,,0.00,0,HR-IXPWINDi_r2_v1.2.,2013-01-19 03:13:00,
2013-01-18 22:19:00,25.1,9.6,30.43,SSW,201,18.0,18.0,51,0.00,,,0.00,0,HR-IXPWINDi_r2_v1.2.,2013-01-19 03:19:00,
2013-01-18 22:24:00,25.2,9.7,30.43,SSW,204,15.0,18.0,51,0.00,,,0.00,0,HR-IXPWINDi_r2_v1.2.,2013-01-19 03:24:00,
2013-01-18 22:29:00,25.2,10.5,30.43,SSW,213,15.0,19.0,53,0.00,,,0.00,0,HR-IXPWINDi_r2_v1.2.,2013-01-19 03:29:00,
2013-01-18 22:34:00,25.2,10.1,30.43,SSW,205,17.0,21.0,52,0.00,,,0.00,0,HR-IXPWINDi_r2_v1.2.,2013-01-19 03:34:00,
2013-01-18 22:39:00,25.2,10.9,30.42,SSW,205,18.0,22.0,54,0.00,,,0.00,0,HR-IXPWINDi_r2_v1.2.,2013-01-19 03:39:00,
2013-01-18 22:45:00,24.9,9.4,30.42,SSW,211,18.0,22.0,51,0.00,,,0.00,0,HR-IXPWINDi_r2_v1.2.,2013-01-19 03:45:00,
2013-01-18 22:50:00,24.9,10.2,30.42,SW,214,17.0,24.0,53,0.00,,,0.00,0,HR-IXPWINDi_r2_v1.2.,2013-01-19 03:50:00,
2013-01-18 22:55:00,24.8,9.3,30.42,South,180,17.0,24.0,51,0.00,,,0.00,0,HR-IXPWINDi_r2_v1.2.,2013-01-19 03:55:00,
2013-01-18 23:00:00,25.0,11.2,30.42,SSW,201,16.0,20.0,55,0.00,,,0.00,0,HR-IXPWINDi_r2_v1.2.,2013-01-19 04:00:00,
2013-01-18 23:05:00,25.1,11.2,30.41,SW,218,16.0,20.0,55,0.00,,,0.00,0,HR-IXPWINDi_r2_v1.2.,2013-01-19 04:05:00,
2013-01-18 23:11:00,25.1,10.8,30.41,SSW,196,18.0,20.0,54,0.00,,,0.00,0,HR-IXPWINDi_r2_v1.2.,2013-01-19 04:11:00,
2013-01-18 23:16:00,25.2,10.1,30.41,South,188,18.0,21.0,52,0.00,,,0.00,0,HR-IXPWINDi_r2_v1.2.,2013-01-19 04:16:00,
2013-01-18 23:21:00,25.3,11.0,30.40,SSW,200,17.0,22.0,54,0.00,,,0.00,0,HR-IXPWINDi_r2_v1.2.,2013-01-19 04:21:00,
2013-01-18 23:26:00,25.4,9.8,30.40,SSW,200,17.0,22.0,51,0.00,,,0.00,0,HR-IXPWINDi_r2_v1.2.,2013-01-19 04:26:00,
2013-01-18 23:31:00,25.4,10.3,30.40,SSW,207,13.0,21.0,52,0.00,,,0.00,0,HR-IXPWINDi_r2_v1.2.,2013-01-19 04:31:00,
2013-01-18 23:36:00,25.5,9.9,30.40,SSW,212,17.0,20.0,51,0.00,,,0.00,0,HR-IXPWINDi_r2_v1.2.,2013-01-19 04:36:00,
2013-01-18 23:42:00,25.7,12.2,30.40,SW,219,18.0,19.0,56,0.00,,,0.00,0,HR-IXPWINDi_r2_v1.2.,2013-01-19 04:42:00,
2013-01-18 23:47:00,25.8,11.1,30.40,SSW,204,17.0,20.0,53,0.00,,,0.00,0,HR-IXPWINDi_r2_v1.2.,2013-01-19 04:47:00,
2013-01-18 23:52:00,25.9,11.6,30.40,SSW,198,15.0,20.0,54,0.00,,,0.00,0,HR-IXPWINDi_r2_v1.2.,2013-01-19 04:52:00,
2013-01-18 23:58:00,26.1,12.2,30.39,SSW,194,20.0,22.0,55,0.00,,,0.00,0,HR-IXPWINDi_r2_v1.2.,2013-01-19 04:58:00,